Wind_Speed
16 16 16 13 15 14 14 15 15 17 18 19 20 20 20 19 18 18 16 15 16 14 13 12 10 10 10 11 11 11 11 11 11 10 11 13 13 14 13 13 13 14 14
19 17 17 14 14 13 13 13 14 15 15 15 17 17 18 15 14 14 13 11 11 10 9 8 8 7 8 9 9 8 8 7 7 8 10 12 13 12 12 11 13 12 13
20 17 16 14 14 12 12 12 11 12 12 13 14 15 14 13 13 12 11 10 9 8 7 5 5 5 5 5 5 5 5 4 4 5 7 8 11 11 10 10 9 11 11
20 19 17 16 13 11 11 11 11 11 12 12 13 13 12 11 10 10 9 9 8 7 6 5 4 3 3 3 3 2 2 3 4 5 4 6 7 11 11 9 10 11 10
23 22 18 15 13 11 11 10 10 11 11 11 11 11 10 9 8 8 8 7 7 6 5 4 4 3 3 3 3 3 3 2 3 1 1 6 13 10 10 9 8 9 10
25 21 19 16 13 12 12 11 10 10 10 9 8 8 7 6 5 5 4 4 5 4 4 3 3 2 2 3 4 4 5 4 5 3 6 5 12 9 9 11 10 10 11
23 20 19 16 13 12 11 10 9 8 7 6 5 5 4 3 3 3 4 3 3 3 3 3 3 3 3 5 5 5 5 6 6 7 6 8 10 7 9 11 9 10 10
23 20 18 15 12 11 9 9 8 5 4 4 3 2 3 3 4 4 4 4 3 3 4 4 4 4 5 6 7 7 7 7 8 7 8 10 12 8 9 11 11 11 11
25 19 16 13 11 10 8 7 6 5 5 4 3 4 4 5 5 5 4 3 3 4 5 5 5 6 7 7 8 10 10 9 9 12 12 13 15 9 10 12 14 14 13
21 21 18 14 11 11 9 6 6 6 5 4 4 4 5 5 4 4 5 5 4 4 5 6 8 8 10 11 10 11 12 9 10 10 12 13 18 13 10 12 13 15 15
11 15 21 16 14 14 12 7 6 6 6 7 4 3 2 9 8 5 10 10 8 7 7 8 9 12 11 11 8 13 13 15 12 15 15 19 18 15 12 14 15 16 16
14 11 15 17 14 10 12 8 8 8 8 5 5 5 6 7 7 11 7 7 6 7 6 9 10 7 10 13 11 14 18 16 14 23 12 18 22 16 14 16 16 16 17
14 13 12 15 11 10 16 9 14 13 10 9 7 4 5 7 9 5 5 8 8 9 8 11 8 7 14 23 15 12 16 41 22 23 6 9 19 7 10 12 16 16 18
14 16 13 13 11 10 8 9 12 6 12 12 8 3 2 3 3 5 5 4 9 10 11 12 13 12 11 22 29 18 16 15 10 20 7 5 10 17 9 13 19 16 17
15 13 17 13 10 8 8 4 0 2 4 4 8 6 2 8 10 4 3 5 3 3 5 4 6 9 9 13 1 2 12 21 15 19 14 6 19 15 9 17 12 14 14
15 15 18 15 12 7 6 2 3 4 10 6 9 4 3 1 2 3 4 7 10 7 6 4 5 5 10 12 4 9 5 9 16 15 5 13 15 9 11 12 13 14 17
16 16 18 18 14 11 7 6 5 5 9 8 13 7 3 2 3 3 5 1 7 11 6 9 8 9 8 9 10 11 6 8 9 10 13 5 5 10 16 16 11 25 22
18 17 18 17 18 14 10 10 8 9 10 13 13 13 6 4 5 6 1 4 8 8 5 8 8 8 10 10 13 13 7 7 12 10 14 7 10 6 12 22 13 21 20
19 17 19 15 20 16 13 9 9 8 14 11 13 14 4 9 11 0 7 5 8 10 7 7 12 11 11 8 12 15 14 9 8 10 14 12 12 8 11 14 14 14 17
21 18 15 15 14 17 15 10 12 10 11 10 5 13 7 4 6 3 8 1 6 4 10 4 5 9 14 6 8 12 17 10 7 8 13 12 18 27 8 5 7 9 9
20 21 17 14 13 10 10 12 13 16 13 14 7 9 5 2 7 5 3 9 4 4 5 4 7 7 12 7 7 8 10 7 8 11 2 8 19 20 11 8 7 6 10
25 23 22 18 17 17 15 14 14 13 2 6 4 7 4 3 4 2 4 5 4 5 6 6 16 10 16 5 3 4 2 1 6 10 8 13 18 19 14 11 7 10 13
26 27 25 22 21 19 18 14 8 10 9 9 13 13 9 9 5 3 4 8 9 10 9 5 11 8 7 15 7 3 3 3 3 8 10 13 20 18 4 11 12 13 12
23 27 27 28 22 23 19 16 15 13 14 12 4 13 16 13 8 9 9 9 8 10 13 15 11 13 11 14 18 16 13 10 3 3 2 11 13 12 9 9 12 8 6
26 27 28 29 27 23 24 21 15 16 16 13 12 18 13 9 13 14 11 8 7 8 12 15 16 15 15 16 17 18 9 14 13 7 5 4 9 11 8 6 4 5 8
25 26 29 32 30 28 24 26 23 17 22 16 10 7 9 14 18 19 11 7 5 8 12 12 14 18 16 18 17 18 17 10 10 9 2 4 4 5 3 2 2 7 6
Wind_Direction
128 128 121 114 112 103 94 87 82 79 78 85 93 98 98 99 103 101 104 101 100 98 102 104 97 97 87 83 87 87 87 84 89 96 96 99 103 104 96 99 107 105 107
131 129 121 123 117 113 104 95 85 81 80 82 86 91 96 102 103 102 98 100 105 104 103 103 101 98 96 95 94 97 93 94 96 98 106 111 109 109 94 93 127 111 110
129 132 126 126 124 118 109 96 89 89 86 86 88 93 98 103 106 109 108 108 108 110 113 118 116 116 109 112 102 99 97 111 127 145 137 123 124 122 116 116 120 123 121
133 135 131 131 127 123 111 102 93 94 91 90 91 95 97 103 107 107 110 111 120 129 140 144 148 151 135 147 174 171 148 130 148 197 244 200 124 138 140 134 130 131 131
142 133 136 134 128 120 112 104 102 90 94 92 95 97 104 107 101 102 113 124 130 141 148 157 161 167 174 194 203 224 231 209 191 168 37 125 142 147 145 141 142 143 136
119 127 131 128 127 121 113 107 103 99 99 101 103 105 107 101 107 128 138 148 152 161 173 183 189 198 227 236 226 234 237 235 233 293 311 169 155 148 152 144 185 167 156
122 128 128 131 128 124 121 119 114 112 116 120 123 118 116 136 169 181 185 192 193 193 211 225 232 236 244 254 249 242 249 249 254 282 202 159 182 158 164 168 170 175 174
127 128 126 133 134 133 128 123 129 136 146 159 158 149 169 196 205 219 221 221 224 225 230 230 235 244 248 251 260 258 250 242 245 250 199 195 185 172 180 179 185 190 183
127 129 135 142 142 144 153 156 156 161 172 169 175 195 202 212 215 215 215 208 225 229 234 241 246 245 249 248 246 251 250 246 249 252 251 212 195 200 188 184 187 194 196
131 134 142 146 157 161 163 169 171 175 183 182 184 196 202 202 223 224 225 217 260 250 246 245 245 251 252 253 254 254 252 247 247 242 259 206 199 192 196 203 199 197 198
121 135 151 153 162 173 171 164 165 176 166 160 184 195 261 262 258 250 246 247 261 265 253 246 239 236 233 239 280 266 258 245 228 223 217 222 206 203 203 207 210 206 203
147 162 137 155 146 186 174 163 165 190 178 203 224 263 238 293 226 222 222 251 278 261 265 253 262 285 291 267 252 250 250 243 281 309 217 232 217 213 211 217 215 217 208
159 169 142 148 152 178 153 157 191 193 189 219 195 235 320 333 266 228 244 250 275 265 265 263 264 223 238 246 253 243 239 47 296 289 131 59 303 344 277 247 224 221 210
167 153 161 141 174 152 135 203 145 202 209 172 209 174 142 242 251 263 250 272 218 242 270 262 231 295 303 253 247 234 219 263 285 244 222 189 249 213 265 293 284 242 218
161 146 147 153 189 137 163 244 252 95 148 230 201 161 183 241 239 240 248 220 299 295 345 255 291 317 280 286 218 307 256 267 291 228 259 217 187 240 277 201 267 244 228
161 158 140 155 175 171 170 135 246 331 282 274 177 183 195 276 244 231 318 290 300 294 7 350 324 286 289 309 316 312 329 7 17 37 128 196 215 248 183 244 149 215 204
163 171 149 161 174 177 182 191 212 214 205 211 211 143 189 223 258 314 297 236 323 329 356 313 305 281 328 2 357 328 0 11 24 59 69 130 209 214 218 169 241 204 202
169 173 158 176 169 179 191 205 212 261 254 258 195 183 156 207 235 238 322 64 276 262 259 337 323 345 331 338 342 313 4 352 87 47 52 40 346 272 186 207 225 209 214
165 167 163 188 167 180 194 210 219 236 242 202 204 161 169 231 236 306 88 230 296 250 184 299 342 342 335 335 336 350 357 335 82 78 67 57 23 236 204 239 198 207 198
156 170 182 188 175 178 187 215 257 229 250 263 203 157 127 144 228 273 301 225 269 144 72 34 318 300 312 290 323 331 335 339 120 99 108 43 352 0 329 299 253 229 215
166 172 189 183 193 180 203 209 229 222 236 231 141 228 157 147 208 253 275 221 300 231 303 340 315 330 325 252 330 333 352 121 119 145 291 307 310 337 279 305 277 246 233
168 175 182 192 186 194 211 225 227 254 316 264 291 203 171 150 229 283 313 343 8 337 314 328 293 294 328 300 338 331 318 197 212 233 276 322 332 334 281 271 266 252 243
174 176 183 192 193 194 209 225 242 258 268 235 217 219 186 182 218 241 282 290 303 301 300 309 266 357 297 327 338 226 279 263 342 239 255 275 304 330 271 252 264 258 264
186 180 186 191 198 200 213 232 215 229 236 239 300 215 185 197 200 233 240 248 268 281 303 320 349 335 331 316 311 284 251 261 262 308 248 292 319 317 285 266 300 298 314
195 187 185 187 195 206 208 217 230 224 251 250 246 168 181 189 234 227 244 244 260 272 293 310 315 321 314 301 301 311 287 261 266 223 291 307 311 323 321 279 296 301 322
195 193 186 185 193 206 207 211 217 225 237 256 290 214 208 239 234 233 235 234 269 286 299 313 313 313 307 297 301 301 295 299 286 271 225 258 265 338 357 194 326 343 356
Height
798 799 802 804 806 807 808 808 810 810 811 811 813 814 816 817 819 821 821 822 824 825 825 824 824 823 823 824 823 823 824 824 824 823 824 824 822 823 825 826 827 827 827
796 800 803 805 807 808 809 810 812 812 813 814 815 816 819 820 822 822 823 824 825 826 825 825 825 825 825 825 825 825 826 826 827 827 827 827 827 827 827 827 828 828 831
797 801 804 806 808 809 811 812 813 815 815 816 817 819 820 822 823 824 825 826 826 826 826 826 826 826 826 826 827 826 826 826 827 826 829 827 827 829 830 830 830 832 834
797 801 805 807 809 810 812 813 815 816 817 818 819 821 821 822 823 825 826 826 826 826 825 825 826 826 827 828 828 827 827 826 825 825 826 828 830 827 828 831 833 835 837
794 800 804 807 810 812 813 815 816 817 818 819 820 821 822 822 824 825 825 825 825 825 825 825 826 827 828 828 829 828 827 826 825 824 825 829 829 828 830 832 834 836 837
795 801 804 808 810 812 814 816 817 818 819 821 821 821 822 823 823 823 823 823 824 824 825 826 827 828 828 827 828 827 828 827 827 827 829 830 830 830 832 834 834 835 836
797 803 804 808 811 813 815 817 818 819 820 820 821 822 822 822 821 821 821 822 823 825 825 826 827 827 828 827 827 827 827 828 829 829 829 830 830 832 833 834 835 836 837
796 802 806 809 812 814 815 817 819 819 820 820 821 821 821 820 819 818 820 821 823 823 823 824 824 825 826 827 827 827 826 825 826 826 826 825 827 828 830 833 835 836 837
794 801 807 810 812 814 815 817 818 819 819 820 820 819 819 818 817 818 819 820 820 820 821 823 823 822 821 820 821 824 825 824 825 824 825 824 825 827 828 829 830 833 835
795 800 806 810 812 813 815 816 817 818 818 818 818 817 817 816 817 819 820 820 819 820 821 820 819 819 817 817 821 823 824 824 821 820 822 820 818 821 828 830 829 831 832
796 800 803 807 810 813 814 816 817 817 817 817 816 816 818 816 817 819 819 819 819 820 819 817 815 810 812 815 822 819 822 821 814 812 816 818 816 817 821 826 828 828 829
797 800 802 805 808 811 814 814 815 815 814 814 814 818 820 819 817 817 817 819 819 816 818 815 814 825 828 825 817 817 814 821 816 812 805 820 816 816 816 821 825 828 828
795 798 802 804 807 809 811 812 812 813 815 815 818 822 822 819 820 817 816 817 816 815 813 812 813 821 820 819 812 809 818 804 812 806 804 800 812 815 827 824 824 825 827
794 796 801 804 807 808 810 810 811 811 812 815 819 821 818 813 819 818 813 812 812 814 812 811 810 810 812 809 801 806 814 812 809 807 808 806 802 816 818 821 830 826 827
793 796 800 804 807 808 810 811 811 812 813 814 817 821 819 819 817 815 811 810 811 813 815 811 812 812 812 804 799 795 805 806 804 808 804 803 805 809 809 812 815 823 826
792 796 800 805 808 809 811 811 812 813 814 814 815 816 819 816 814 811 811 812 812 813 813 814 813 812 811 806 802 802 805 809 808 807 803 803 805 806 809 811 813 816 819
792 796 799 804 808 810 811 813 812 814 812 810 814 813 814 813 811 810 810 812 812 812 813 811 810 811 811 808 807 806 805 804 803 802 799 801 803 804 804 804 806 806 814
790 795 798 801 805 809 810 812 813 810 810 811 812 812 813 813 811 810 813 808 811 808 810 810 807 809 808 806 805 804 802 801 798 797 802 802 802 802 803 804 803 806 810
788 793 796 799 801 806 808 809 810 810 808 809 809 811 810 813 813 813 811 811 811 809 809 805 806 807 806 803 801 798 797 798 797 797 801 801 804 797 803 804 803 805 805
787 792 795 798 800 803 805 807 807 808 806 807 809 809 809 812 812 813 810 808 809 810 807 807 809 809 805 802 800 798 797 798 797 800 799 799 802 804 807 805 804 804 803
785 790 795 797 800 802 804 805 805 804 804 805 807 810 810 808 809 810 810 808 808 808 807 810 809 805 803 801 801 799 798 798 798 799 798 791 793 799 803 804 804 804 803
780 786 791 795 797 801 802 803 804 803 804 803 804 809 808 808 809 809 809 809 809 808 809 808 810 807 807 802 802 803 801 801 798 797 799 798 798 797 796 798 801 802 801
774 780 786 791 794 797 799 801 802 802 803 801 801 804 806 806 807 808 808 809 809 809 809 807 806 803 803 802 801 802 803 802 797 795 795 792 794 793 792 793 795 795 796
770 776 781 786 791 794 797 799 800 801 800 799 798 798 802 804 805 805 805 805 805 806 805 805 804 802 801 800 799 798 798 798 798 796 795 791 791 790 790 792 794 795 794
764 770 776 781 786 790 792 795 797 799 798 799 797 799 800 801 799 800 801 802 802 803 803 803 802 801 800 799 797 794 794 793 794 795 792 791 788 787 789 792 792 792 791
757 763 769 774 780 785 788 791 793 795 795 796 796 796 796 796 796 797 800 801 802 801 801 801 801 800 798 797 795 793 791 790 789 789 791 790 789 787 788 789 791 792 792